GW3604 Weather Reports


time (UTC)temp
F
wind
direction
speed
knots
gust
knots
rain 1hr
in
rain 24hr
in
rain mn
in
humidity
%
barometer
mb
20260905224503 66 0 0.0 0.0 0.00 0.00 0.00 81 1009.9
20260905224003 66 0 0.0 0.0 0.00 0.00 0.00 81 1009.9
20260905223504 66 0 0.0 0.0 0.00 0.00 0.00 81 1009.8
20260905223003 66 0 0.0 0.0 0.00 0.00 0.00 80 1009.9
20260905222003 66 0 0.0 0.0 0.00 0.00 0.00 80 1009.8
20260905221504 66 0 0.0 0.0 0.00 0.00 0.00 80 1009.8
20260905221003 67 0 0.0 0.0 0.00 0.00 0.00 80 1009.8
20260905220503 67 0 0.0 0.0 0.00 0.00 0.00 80 1009.8
20260905220003 67 0 0.0 0.0 0.00 0.00 0.00 80 1009.8
20260905215503 67 0 0.0 0.0 0.00 0.00 0.00 79 1009.7
20260905215003 67 145 0.0 3.5 0.00 0.00 0.00 78 1009.6
20260905214504 67 145 0.0 3.5 0.00 0.00 0.00 78 1009.5
20260905213503 67 0 0.0 0.0 0.00 0.00 0.00 78 1009.3
20260905213003 67 150 0.0 5.2 0.00 0.00 0.00 78 1009.3
20260905212504 67 172 0.0 5.2 0.00 0.00 0.00 79 1009.3
20260905212003 68 194 0.0 3.5 0.00 0.00 0.00 79 1009.2
20260905211504 68 0 0.0 0.0 0.00 0.00 0.00 80 1009.2
20260905211003 68 0 0.0 0.0 0.00 0.00 0.00 79 1009.2
20260905210003 68 201 0.0 0.9 0.00 0.00 0.00 78 1009.0
20260905205504 69 201 0.0 2.6 0.00 0.00 0.00 77 1009.1
20260905205003 69 201 0.0 2.6 0.00 0.00 0.00 75 1009.2
20260905204503 70 149 0.0 6.1 0.00 0.00 0.00 74 1009.1
20260905204003 70 151 0.9 6.1 0.00 0.00 0.00 73 1009.1
20260905203504 71 172 0.0 3.5 0.00 0.00 0.00 71 1009.1
20260905203003 72 182 0.9 8.7 0.00 0.00 0.00 69 1009.1
20260905202003 74 157 0.0 3.5 0.00 0.00 0.00 65 1008.8
20260905201503 74 146 0.9 9.6 0.00 0.00 0.00 63 1008.8
20260905201004 75 130 0.9 9.6 0.00 0.00 0.00 61 1008.7
20260905200504 76 53 0.0 2.6 0.00 0.00 0.00 62 1008.4
20260905200003 76 126 0.0 2.6 0.00 0.00 0.00 62 1008.3
20260905195504 75 157 0.0 2.6 0.00 0.00 0.00 63 1008.2
20260905195004 75 210 0.0 2.6 0.00 0.00 0.00 64 1008.2
20260905194504 75 135 0.0 6.1 0.00 0.00 0.00 63 1008.2
20260905194003 75 133 0.9 6.1 0.00 0.00 0.00 63 1008.1
20260905193504 76 127 0.0 2.6 0.00 0.00 0.00 63 1008.2
20260905193003 76 126 0.0 3.5 0.00 0.00 0.00 62 1008.2
20260905192503 76 126 0.0 3.5 0.00 0.00 0.00 61 1008.2
20260905192003 76 0 0.0 0.0 0.00 0.00 0.00 60 1008.2
20260905191504 76 135 0.0 3.5 0.00 0.00 0.00 61 1008.2
20260905190504 76 161 0.0 4.3 0.00 0.00 0.00 62 1008.2
20260905190003 76 163 0.0 4.3 0.00 0.00 0.00 60 1008.2
20260905185503 76 139 0.0 3.5 0.00 0.00 0.00 64 1008.2
20260905185003 76 139 0.0 3.5 0.00 0.00 0.00 61 1008.3
20260905184503 76 0 0.0 0.0 0.00 0.00 0.00 62 1008.3
20260905184003 76 119 0.0 6.1 0.00 0.00 0.00 62 1008.3
20260905183004 76 143 0.0 4.3 0.00 0.00 0.00 61 1008.2
20260905182503 76 132 0.0 2.6 0.00 0.00 0.00 64 1008.3
20260905182003 76 128 0.0 2.6 0.00 0.00 0.00 64 1008.3
20260905181004 75 235 0.0 2.6 0.00 0.00 0.00 60 1008.2
20260905180503 75 205 0.0 3.5 0.00 0.00 0.00 61 1008.2
20260905180004 74 158 0.0 3.5 0.00 0.00 0.00 63 1008.2
20260905175504 75 114 0.0 1.7 0.00 0.00 0.00 64 1008.3
20260905175003 75 88 0.0 3.5 0.00 0.00 0.00 62 1008.2
20260905174503 74 113 0.0 3.5 0.00 0.00 0.00 64 1008.2
20260905174004 74 172 0.0 2.6 0.00 0.00 0.00 63 1008.1
20260905173503 74 0 0.0 0.0 0.00 0.00 0.00 62 1008.1
20260905173003 74 215 0.0 2.6 0.00 0.00 0.00 63 1008.1
20260905172504 74 215 0.0 2.6 0.00 0.00 0.00 62 1007.8
20260905172003 75 0 0.0 0.0 0.00 0.00 0.00 62 1007.9
20260905171503 74 0 0.0 0.0 0.00 0.00 0.00 62 1007.8
20260905171003 75 144 0.0 3.5 0.00 0.00 0.00 62 1007.8
20260905170503 75 133 0.0 5.2 0.00 0.00 0.00 60 1007.8
20260905170003 75 124 0.0 5.2 0.00 0.00 0.00 62 1008.0
20260905165503 75 260 0.0 1.7 0.00 0.00 0.00 62 1007.9
20260905165003 75 175 0.0 2.6 0.00 0.00 0.00 63 1007.8
20260905164504 74 132 0.0 2.6 0.00 0.00 0.00 62 1007.8
20260905164003 74 351 0.0 1.7 0.00 0.00 0.00 62 1007.8
20260905163504 74 97 0.0 2.6 0.00 0.00 0.00 62 1007.9
20260905162003 73 191 0.0 3.5 0.00 0.00 0.00 66 1008.1
20260905161504 73 261 0.0 3.5 0.00 0.00 0.00 65 1008.1
20260905161003 73 251 0.0 3.5 0.00 0.00 0.00 65 1008.1
20260905160503 73 249 0.0 2.6 0.00 0.00 0.00 65 1008.2
20260905155504 73 237 0.0 2.6 0.00 0.00 0.00 68 1008.0
20260905155003 73 237 0.0 2.6 0.00 0.00 0.00 67 1008.0
20260905154503 72 0 0.0 0.0 0.00 0.00 0.00 68 1008.1
20260905154003 72 274 0.0 1.7 0.00 0.00 0.00 72 1008.2
20260905153504 72 274 0.0 1.7 0.00 0.00 0.00 71 1008.2
20260905153003 72 273 0.0 1.7 0.00 0.00 0.00 72 1008.2
20260905152504 71 0 0.0 0.0 0.00 0.00 0.00 73 1008.2
20260905152004 71 0 0.0 0.0 0.00 0.00 0.00 73 1008.2
20260905151503 71 0 0.0 0.0 0.00 0.00 0.00 74 1008.2
20260905151004 71 0 0.0 0.0 0.00 0.00 0.00 74 1008.2
20260905150004 70 0 0.0 0.0 0.00 0.00 0.00 76 1008.1
20260905145004 70 0 0.0 0.0 0.00 0.00 0.00 77 1008.2
20260905144503 70 0 0.0 0.0 0.00 0.00 0.00 77 1008.2
20260905144003 69 0 0.0 0.0 0.00 0.00 0.00 77 1008.3
20260905143503 69 0 0.0 0.0 0.00 0.00 0.00 78 1008.3
20260905143003 69 0 0.0 0.0 0.00 0.00 0.00 80 1008.3
20260905142504 68 0 0.0 0.0 0.00 0.00 0.00 79 1008.3
20260905142003 68 0 0.0 0.0 0.00 0.00 0.00 80 1008.3
20260905141504 68 0 0.0 0.0 0.00 0.00 0.00 82 1008.3
20260905140004 67 0 0.0 0.0 0.00 0.00 0.00 86 1008.3
20260905135503 67 0 0.0 0.0 0.00 0.00 0.00 87 1008.2
20260905135003 66 0 0.0 0.0 0.00 0.00 0.00 88 1008.2
20260905134504 66 0 0.0 0.0 0.00 0.00 0.00 89 1008.2
20260905134003 66 272 0.0 1.7 0.00 0.00 0.00 90 1008.2
20260905133504 66 272 0.0 1.7 0.00 0.00 0.00 92 1008.1
20260905133003 65 0 0.0 0.0 0.00 0.00 0.00 93 1008.0
20260905132504 65 0 0.0 0.0 0.00 0.00 0.00 94 1007.9
20260905132003 65 0 0.0 0.0 0.00 0.00 0.00 95 1007.8
20260905131003 64 0 0.0 0.0 0.00 0.00 0.00 100 1007.7
20260905130503 64 0 0.0 0.0 0.00 0.00 0.00 100 1007.7
20260905130004 64 0 0.0 0.0 0.00 0.00 0.00 100 1007.7
20260905125504 64 0 0.0 0.0 0.00 0.00 0.00 100 1007.7
20260905125003 64 0 0.0 0.0 0.00 0.00 0.00 100 1007.7
20260905124504 63 0 0.0 0.0 0.00 0.00 0.00 100 1007.7
20260905124003 63 0 0.0 0.0 0.00 0.00 0.00 100 1007.6
20260905123503 63 0 0.0 0.0 0.00 0.00 0.00 100 1007.5
20260905122504 62 0 0.0 0.0 0.00 0.00 0.00 100 1007.4
20260905122004 62 0 0.0 0.0 0.00 0.00 0.00 100 1007.3
20260905121503 62 0 0.0 0.0 0.00 0.00 0.00 100 1007.2
20260905121004 62 0 0.0 0.0 0.00 0.00 0.00 100 1007.2
20260905120003 61 0 0.0 0.0 0.00 0.00 0.00 100 1007.2
20260905115503 61 0 0.0 0.0 0.00 0.00 0.00 100 1007.2
20260905115004 61 0 0.0 0.0 0.00 0.00 0.00 100 1007.2
20260905114503 60 0 0.0 0.0 0.00 0.00 0.00 100 1007.2
20260905114003 60 0 0.0 0.0 0.00 0.00 0.00 100 1007.1
20260905113503 60 0 0.0 0.0 0.00 0.00 0.00 100 1007.0
20260905113004 60 0 0.0 0.0 0.00 0.00 0.00 96 1007.0
20260905112503 60 0 0.0 0.0 0.00 0.00 0.00 96 1007.0
20260905112004 60 0 0.0 0.0 0.00 0.00 0.00 95 1007.1
20260905111503 60 0 0.0 0.0 0.00 0.00 0.00 95 1007.0
20260905111003 60 0 0.0 0.0 0.00 0.00 0.00 95 1007.0
20260905110503 59 0 0.0 0.0 0.00 0.00 0.00 94 1006.9
20260905110004 59 0 0.0 0.0 0.00 0.00 0.00 94 1007.0
20260905105004 59 0 0.0 0.0 0.00 0.00 0.00 94 1006.8
20260905104503 59 0 0.0 0.0 0.00 0.00 0.00 94 1006.8
20260905104004 59 0 0.0 0.0 0.00 0.00 0.00 94 1006.9
20260905103503 59 0 0.0 0.0 0.00 0.00 0.00 94 1006.9
20260905103003 59 0 0.0 0.0 0.00 0.00 0.00 94 1006.8
20260905102504 59 0 0.0 0.0 0.00 0.00 0.00 93 1006.8
20260905101003 59 0 0.0 0.0 0.00 0.00 0.00 93 1006.7
20260905100504 59 0 0.0 0.0 0.00 0.00 0.00 92 1006.6
20260905100003 59 0 0.0 0.0 0.00 0.00 0.00 92 1006.7
20260905095503 59 0 0.0 0.0 0.00 0.00 0.00 92 1006.6
20260905095003 59 0 0.0 0.0 0.00 0.00 0.00 92 1006.6
20260905094503 59 0 0.0 0.0 0.00 0.00 0.00 92 1006.5
20260905094004 59 0 0.0 0.0 0.00 0.00 0.00 92 1006.5
20260905093503 59 0 0.0 0.0 0.00 0.00 0.00 92 1006.5
20260905093004 59 0 0.0 0.0 0.00 0.00 0.00 92 1006.5
20260905092003 59 0 0.0 0.0 0.00 0.00 0.00 91 1006.4
20260905091503 59 0 0.0 0.0 0.00 0.00 0.00 91 1006.4
20260905091003 59 0 0.0 0.0 0.00 0.00 0.00 91 1006.3
20260905090503 59 0 0.0 0.0 0.00 0.00 0.00 91 1006.4
20260905090004 59 0 0.0 0.0 0.00 0.00 0.00 91 1006.4
20260905085503 59 0 0.0 0.0 0.00 0.00 0.00 91 1006.3
20260905084504 59 0 0.0 0.0 0.00 0.00 0.00 91 1006.2
20260905084003 60 0 0.0 0.0 0.00 0.00 0.00 91 1006.2
20260905083503 60 0 0.0 0.0 0.00 0.00 0.00 91 1006.1
20260905083004 60 0 0.0 0.0 0.00 0.00 0.00 91 1006.1
20260905081503 60 0 0.0 0.0 0.00 0.00 0.00 90 1006.2
20260905081004 60 0 0.0 0.0 0.00 0.00 0.00 90 1006.2
20260905080503 60 0 0.0 0.0 0.00 0.00 0.00 89 1006.1
20260905080004 60 0 0.0 0.0 0.00 0.00 0.00 89 1006.2
20260905075504 60 0 0.0 0.0 0.00 0.00 0.00 89 1006.1
20260905074504 60 0 0.0 0.0 0.00 0.00 0.00 89 1006.2
20260905074003 61 0 0.0 0.0 0.00 0.00 0.00 89 1006.2
20260905073503 61 0 0.0 0.0 0.00 0.00 0.00 89 1006.2
20260905073003 61 0 0.0 0.0 0.00 0.00 0.00 89 1006.2
20260905072503 61 0 0.0 0.0 0.00 0.00 0.00 89 1006.3
20260905072004 61 0 0.0 0.0 0.00 0.00 0.00 89 1006.4
20260905071503 61 0 0.0 0.0 0.00 0.00 0.00 89 1006.4
20260905071004 61 0 0.0 0.0 0.00 0.00 0.00 89 1006.4
20260905070503 61 0 0.0 0.0 0.00 0.00 0.00 89 1006.5
20260905065504 61 0 0.0 0.0 0.00 0.00 0.00 89 1006.6
20260905064003 62 0 0.0 0.0 0.00 0.00 0.00 89 1006.7
20260905063503 62 0 0.0 0.0 0.00 0.00 0.00 89 1006.7
20260905063003 62 0 0.0 0.0 0.00 0.00 0.00 88 1006.6
20260905062503 62 0 0.0 0.0 0.00 0.00 0.00 88 1006.7
20260905062003 62 0 0.0 0.0 0.00 0.00 0.00 87 1006.7
20260905061504 62 0 0.0 0.0 0.00 0.00 0.00 87 1006.7
20260905061003 62 0 0.0 0.0 0.00 0.00 0.00 87 1006.8
20260905060503 62 0 0.0 0.0 0.00 0.00 0.00 87 1006.9
20260905060003 62 0 0.0 0.0 0.00 0.00 0.00 87 1007.1
20260905055003 62 0 0.0 0.0 0.00 0.00 0.00 87 1006.9
20260905054503 62 0 0.0 0.0 0.00 0.00 0.00 87 1006.8
20260905054003 62 0 0.0 0.0 0.00 0.00 0.00 87 1006.8
20260905053503 62 0 0.0 0.0 0.00 0.00 0.00 86 1006.9
20260905053003 62 0 0.0 0.0 0.00 0.00 0.00 86 1007.0
20260905052503 62 0 0.0 0.0 0.00 0.00 0.00 86 1006.9
20260905052003 62 0 0.0 0.0 0.00 0.00 0.00 86 1006.8
20260905051504 62 0 0.0 0.0 0.00 0.00 0.00 86 1006.9
20260905051003 62 0 0.0 0.0 0.00 0.00 0.00 86 1007.0
20260905050503 63 0 0.0 0.0 0.00 0.00 0.00 86 1007.0
20260905050003 63 0 0.0 0.0 0.00 0.00 0.00 85 1007.1
20260905045504 63 0 0.0 0.0 0.00 0.00 0.00 85 1007.1
20260905045003 63 0 0.0 0.0 0.00 0.00 0.00 85 1006.9
20260905044504 63 0 0.0 0.0 0.00 0.00 0.00 84 1006.9
20260905044003 63 0 0.0 0.0 0.00 0.00 0.00 84 1006.8
20260905043504 63 0 0.0 0.0 0.00 0.00 0.00 84 1006.7
20260905043003 64 0 0.0 0.0 0.00 0.00 0.00 84 1006.8
20260905042504 64 0 0.0 0.0 0.00 0.00 0.00 84 1006.8
20260905041503 64 0 0.0 0.0 0.00 0.00 0.00 83 1007.1
20260905041003 64 0 0.0 0.0 0.00 0.00 0.00 83 1007.2
20260905040004 64 0 0.0 0.0 0.00 0.00 0.00 82 1007.1
20260905035503 64 0 0.0 0.0 0.00 0.00 0.00 83 1006.8
20260905035004 64 0 0.0 0.0 0.00 0.00 0.00 83 1006.8
20260905034503 65 0 0.0 0.0 0.00 0.00 0.00 83 1006.9
20260905034004 65 0 0.0 0.0 0.00 0.00 0.00 83 1007.0
20260905033503 65 0 0.0 0.0 0.00 0.00 0.00 83 1007.1
20260905033003 65 0 0.0 0.0 0.00 0.00 0.00 82 1007.0
20260905032504 65 0 0.0 0.0 0.00 0.00 0.00 82 1007.0
20260905031504 65 0 0.0 0.0 0.00 0.00 0.00 81 1007.1
20260905031003 65 0 0.0 0.0 0.00 0.00 0.00 82 1007.1
20260905030504 65 0 0.0 0.0 0.00 0.00 0.00 81 1007.1
20260905030003 65 0 0.0 0.0 0.00 0.00 0.00 81 1007.2
20260905025004 65 0 0.0 0.0 0.00 0.00 0.00 81 1007.2
20260905024503 66 0 0.0 0.0 0.00 0.00 0.00 80 1007.2
20260905024003 66 0 0.0 0.0 0.00 0.00 0.00 80 1007.2
20260905023504 66 0 0.0 0.0 0.00 0.00 0.00 80 1007.2
20260905023003 66 0 0.0 0.0 0.00 0.00 0.00 80 1007.2
20260905022504 66 0 0.0 0.0 0.00 0.00 0.00 80 1007.2
20260905022004 66 0 0.0 0.0 0.00 0.00 0.00 78 1007.2
20260905021503 66 0 0.0 0.0 0.00 0.00 0.00 78 1007.2
20260905021004 66 0 0.0 0.0 0.00 0.00 0.00 77 1007.2
20260905020503 66 0 0.0 0.0 0.00 0.00 0.00 77 1007.3
20260905015504 67 0 0.0 0.0 0.00 0.00 0.00 77 1007.3
20260905015003 67 0 0.0 0.0 0.00 0.00 0.00 77 1007.3
20260905014003 68 0 0.0 0.0 0.00 0.00 0.00 75 1007.4
20260905013503 68 0 0.0 0.0 0.00 0.00 0.00 76 1007.5
20260905013003 68 0 0.0 0.0 0.00 0.00 0.00 75 1007.6
20260905012008 68 0 0.0 0.0 0.00 0.00 0.00 74 1007.5
20260905011506 68 0 0.0 0.0 0.00 0.00 0.00 73 1007.6
20260905011003 69 0 0.0 0.0 0.00 0.00 0.00 73 1007.5
20260905010004 69 0 0.0 0.0 0.00 0.00 0.00 72 1007.5
20260905005503 70 0 0.0 0.0 0.00 0.00 0.00 72 1007.4
20260905005003 70 0 0.0 0.0 0.00 0.00 0.00 72 1007.3
20260905004503 70 0 0.0 0.0 0.00 0.00 0.00 71 1007.3
20260905004003 70 0 0.0 0.0 0.00 0.00 0.00 71 1007.2
20260905003503 71 0 0.0 0.0 0.00 0.00 0.00 71 1007.2
20260905002504 71 0 0.0 0.0 0.00 0.00 0.00 68 1007.2
20260905002003 72 0 0.0 0.0 0.00 0.00 0.00 68 1007.3
20260905001503 72 0 0.0 0.0 0.00 0.00 0.00 67 1007.2
20260905001004 72 0 0.0 0.0 0.00 0.00 0.00 66 1007.2
20260905000503 73 0 0.0 0.0 0.00 0.00 0.00 66 1007.2
20260905000003 73 0 0.0 0.0 0.00 0.00 0.00 65 1007.2
20260904235503 73 0 0.0 0.0 0.00 0.00 0.00 63 1007.2
20260904234503 74 0 0.0 0.0 0.00 0.00 0.00 64 1007.0
20260904234003 74 0 0.0 0.0 0.00 0.00 0.00 63 1006.7
20260904233503 75 0 0.0 0.0 0.00 0.00 0.00 61 1006.7
20260904233004 75 0 0.0 0.0 0.00 0.00 0.00 58 1006.7
20260904232503 75 0 0.0 0.0 0.00 0.00 0.00 58 1006.7
20260904232003 76 0 0.0 0.0 0.00 0.00 0.00 58 1006.6
20260904231508 76 0 0.0 0.0 0.00 0.00 0.00 57 1006.6
20260904230504 77 0 0.0 0.0 0.00 0.00 0.00 57 1006.4
20260904230003 77 0 0.0 0.0 0.00 0.00 0.00 58 1006.4
20260904225503 78 0 0.0 0.0 0.00 0.00 0.00 57 1006.5
20260904225004 78 0 0.0 0.0 0.00 0.00 0.00 58 1006.5